Kokomo, IN

1:13 AM EDT on April 22, 2018 (GMT -0400)
Kokomo Municipal

Weather History for KOKK - April, 2014

Change the Weather History Date:

Saturday, April 26, 2014

  Actual Average (KGUS) Record (KGUS)
Temperature  
Mean Temperature 60 °F -  
Max Temperature 69 °F 64 °F 82 °F (2017)
Min Temperature 50 °F 44 °F 33 °F (2006)
Degree Days  
Heating Degree Days 6    
Growing Degree Days 10 (Base 50)    
Moisture  
Dew Point 41 °F    
Average Humidity 54    
Maximum Humidity 82    
Minimum Humidity 34    
Precipitation  
Precipitation 0.00 in - - ()
Sea Level Pressure  
Sea Level Pressure 29.92 in    
Wind  
Wind Speed 9 mph (NNW)    
Max Wind Speed 16 mph    
Max Gust Speed 20 mph    
Visibility 10 miles    
Events      
Averages and records for this station are not official NWS values.
T = Trace of Precipitation, MM = Missing Value Source: NWS Daily Summary

Daily Weather History Graph

Daily Weather History Graph

Search for Another Location

Airport or City:

Astronomy

Apr. 26, 2014 Rise Set
Actual Time 5:49 AM CDT 7:34 PM CDT
Civil Twilight 5:20 AM CDT 8:04 PM CDT
Nautical Twilight 4:45 AM CDT 8:39 PM CDT
Astronomical Twilight 4:07 AM CDT 9:17 PM CDT
Moon 4:14 AM CDT (4/26) 5:02 PM CDT (4/26)
Length of Visible Light 14h 43m
Length of Day
13h 45m
Waning Crescent, 8% of the Moon is Illuminated
Apr 26
Waning Crescent
Apr 29
New
May 6
First Quarter
May 14
Full
May 21
Last Quarter

Hourly Weather History & Observations

Time (CDT) Temp. Dew Point Humidity Pressure Visibility Wind Dir Wind Speed Gust Speed Precip Events Conditions
12:15 AM 51.8 °F 42.8 °F 71% 29.86 in 10.0 mi WSW 10.4 mph - N/A   Clear
12:35 AM 51.8 °F 42.8 °F 71% 29.87 in 10.0 mi WSW 8.1 mph - N/A   Clear
12:55 AM 51.8 °F 42.8 °F 71% 29.87 in 10.0 mi West 8.1 mph - N/A   Clear
1:15 AM 51.8 °F 42.8 °F 71% 29.87 in 10.0 mi West 9.2 mph - N/A   Scattered Clouds
1:35 AM 53.6 °F 42.8 °F 67% 29.86 in 10.0 mi WSW 10.4 mph - N/A   Mostly Cloudy
1:55 AM 53.6 °F 42.8 °F 67% 29.86 in 10.0 mi West 9.2 mph - N/A   Mostly Cloudy
2:15 AM 53.6 °F 42.8 °F 67% 29.86 in 10.0 mi West 10.4 mph - N/A   Mostly Cloudy
2:35 AM 53.6 °F 44.6 °F 72% 29.85 in 10.0 mi West 10.4 mph - N/A   Mostly Cloudy
2:55 AM 53.6 °F 44.6 °F 72% 29.85 in 10.0 mi West 10.4 mph - N/A   Mostly Cloudy
3:15 AM 53.6 °F 44.6 °F 72% 29.85 in 10.0 mi West 10.4 mph - N/A   Mostly Cloudy
3:35 AM 57.2 °F 44.6 °F 63% 29.85 in 10.0 mi West 15.0 mph - N/A   Scattered Clouds
3:55 AM 57.2 °F 44.6 °F 63% 29.86 in 10.0 mi West 12.7 mph - N/A   Mostly Cloudy
4:15 AM 55.4 °F 44.6 °F 67% 29.87 in 10.0 mi WNW 11.5 mph - N/A   Mostly Cloudy
4:35 AM 55.4 °F 44.6 °F 67% 29.87 in 10.0 mi West 9.2 mph - N/A   Mostly Cloudy
4:55 AM 55.4 °F 44.6 °F 67% 29.87 in 10.0 mi West 10.4 mph - N/A   Scattered Clouds
5:15 AM 51.8 °F 44.6 °F 76% 29.88 in 10.0 mi WNW 9.2 mph - N/A   Partly Cloudy
5:35 AM 50.0 °F 44.6 °F 82% 29.88 in 10.0 mi West 8.1 mph - N/A   Scattered Clouds
5:55 AM 51.8 °F 44.6 °F 76% 29.89 in 10.0 mi NW 4.6 mph - N/A   Overcast
6:15 AM 51.8 °F 44.6 °F 76% 29.89 in 10.0 mi WSW 4.6 mph - N/A   Overcast
6:55 AM 51.8 °F 46.4 °F 82% 29.89 in 10.0 mi WSW 3.5 mph - N/A   Mostly Cloudy
7:15 AM 51.8 °F 46.4 °F 82% 29.90 in 10.0 mi WSW 4.6 mph - N/A   Partly Cloudy
7:35 AM 55.4 °F 46.4 °F 72% 29.91 in 10.0 mi WSW 4.6 mph - N/A   Partly Cloudy
7:55 AM 57.2 °F 46.4 °F 67% 29.90 in 10.0 mi WSW 4.6 mph - N/A   Mostly Cloudy
8:15 AM 57.2 °F 46.4 °F 67% 29.90 in 2.5 mi WSW 6.9 mph - N/A   Mostly Cloudy
8:35 AM 60.8 °F 46.4 °F 59% 29.90 in 10.0 mi WSW 5.8 mph - N/A   Mostly Cloudy
9:15 AM 62.6 °F 42.8 °F 48% 29.92 in 10.0 mi NNW 11.5 mph 16.1 mph N/A   Mostly Cloudy
9:35 AM 60.8 °F 44.6 °F 55% 29.92 in 10.0 mi North 11.5 mph - N/A   Scattered Clouds
9:55 AM 62.6 °F 44.6 °F 52% 29.92 in 10.0 mi North 11.5 mph - N/A   Clear
10:15 AM 62.6 °F 44.6 °F 52% 29.93 in 10.0 mi North 10.4 mph - N/A   Clear
10:35 AM 62.6 °F 44.6 °F 52% 29.93 in 10.0 mi North 11.5 mph - N/A   Clear
10:55 AM 64.4 °F 42.8 °F 45% 29.93 in 10.0 mi NNE 10.4 mph - N/A   Clear
11:15 AM 64.4 °F 42.8 °F 45% 29.94 in 10.0 mi North 6.9 mph - N/A   Clear
11:35 AM 64.4 °F 42.8 °F 45% 29.94 in 10.0 mi NW 3.5 mph - N/A   Clear
11:55 AM 66.2 °F 42.8 °F 43% 29.94 in 10.0 mi NNW 4.6 mph - N/A   Clear
12:15 PM 66.2 °F 42.8 °F 43% 29.94 in 10.0 mi NNW 8.1 mph - N/A   Clear
12:35 PM 66.2 °F 44.6 °F 46% 29.93 in 10.0 mi North 11.5 mph - N/A   Clear
12:55 PM 66.2 °F 42.8 °F 43% 29.93 in 10.0 mi North 5.8 mph - N/A   Clear
1:15 PM 66.2 °F 42.8 °F 43% 29.94 in 10.0 mi Calm Calm - N/A   Clear
1:35 PM 69.8 °F 42.8 °F 38% 29.94 in 10.0 mi NNW 6.9 mph - N/A   Clear
1:55 PM 69.8 °F 42.8 °F 38% 29.94 in 10.0 mi WNW 6.9 mph - N/A   Clear
2:15 PM 69.8 °F 42.8 °F 38% 29.94 in 10.0 mi NNW 8.1 mph - N/A   Clear
2:35 PM 69.8 °F 42.8 °F 38% 29.94 in 10.0 mi North 8.1 mph - N/A   Clear
2:55 PM 69.8 °F 42.8 °F 38% 29.94 in 10.0 mi North 10.4 mph 17.3 mph N/A   Clear
3:15 PM 69.8 °F 42.8 °F 38% 29.94 in 10.0 mi NNW 11.5 mph - N/A   Clear
3:35 PM 69.8 °F 42.8 °F 38% 29.94 in 10.0 mi North 6.9 mph - N/A   Clear
3:55 PM 69.8 °F 42.8 °F 38% 29.94 in 10.0 mi North 8.1 mph - N/A   Clear
4:15 PM 69.8 °F 41.0 °F 35% 29.94 in 10.0 mi North 10.4 mph 16.1 mph N/A   Clear
4:35 PM 69.8 °F 41.0 °F 35% 29.94 in 10.0 mi NNW 9.2 mph 16.1 mph N/A   Clear
4:55 PM 69.8 °F 41.0 °F 35% 29.94 in 10.0 mi NNE 13.8 mph 19.6 mph N/A   Clear
5:15 PM 68.0 °F 39.2 °F 35% 29.93 in 10.0 mi NNE 16.1 mph - N/A   Clear
5:35 PM 66.2 °F 39.2 °F 37% 29.93 in 10.0 mi NE 12.7 mph - N/A   Clear
5:55 PM 66.2 °F 37.4 °F 35% 29.93 in 10.0 mi NNE 13.8 mph - N/A   Clear
6:15 PM 64.4 °F 35.6 °F 34% 29.93 in 10.0 mi NNE 12.7 mph - N/A   Clear
6:35 PM 62.6 °F 35.6 °F 37% 29.92 in 10.0 mi NE 10.4 mph - N/A   Clear
6:55 PM 62.6 °F 33.8 °F 34% 29.93 in 10.0 mi NNE 11.5 mph - N/A   Clear
7:15 PM 60.8 °F 35.6 °F 39% 29.93 in 10.0 mi NNE 10.4 mph - N/A   Clear
7:35 PM 57.2 °F 35.6 °F 44% 29.94 in 10.0 mi NE 10.4 mph - N/A   Clear
7:55 PM 57.2 °F 33.8 °F 41% 29.95 in 10.0 mi NE 8.1 mph - N/A   Clear
8:15 PM 55.4 °F 33.8 °F 44% 29.96 in 10.0 mi NE 9.2 mph - N/A   Clear
8:35 PM 53.6 °F 35.6 °F 51% 29.96 in 10.0 mi NE 11.5 mph - N/A   Clear
8:55 PM 53.6 °F 35.6 °F 51% 29.97 in 10.0 mi NE 6.9 mph - N/A   Clear
9:15 PM 51.8 °F 35.6 °F 54% 29.98 in 10.0 mi NE 8.1 mph - N/A   Clear
9:35 PM 51.8 °F 35.6 °F 54% 29.98 in 10.0 mi NE 8.1 mph - N/A   Clear
9:55 PM 51.8 °F 35.6 °F 54% 29.98 in 10.0 mi NE 8.1 mph - N/A   Clear
10:15 PM 51.8 °F 35.6 °F 54% 29.97 in 10.0 mi NE 9.2 mph - N/A   Clear
10:35 PM 51.8 °F 33.8 °F 50% 29.97 in 10.0 mi NE 8.1 mph - N/A   Clear
10:55 PM 51.8 °F 33.8 °F 50% 29.98 in 10.0 mi ENE 9.2 mph - N/A   Clear
11:15 PM 50.0 °F 33.8 °F 54% 29.97 in 10.0 mi ENE 9.2 mph - N/A   Clear
11:35 PM 50.0 °F 35.6 °F 58% 29.97 in 10.0 mi ENE 11.5 mph - N/A   Clear
11:55 PM 51.8 °F 35.6 °F 54% 29.98 in 10.0 mi East 12.7 mph - N/A   Clear